SCP
1 1 1 1 1 1 1 1 1 1 1 1 1 1 1 1 1 1 1 1 0 0 0 0 0 0 0 0 0 0 0 0 0 0 0 0 0 0 0 0 0 0 0
1 1 1 1 1 1 1 1 1 1 1 1 1 1 1 1 1 1 1 1 0 0 0 0 0 0 0 0 0 0 0 0 0 0 0 0 0 0 0 0 0 0 0
1 1 1 1 1 1 1 1 1 1 1 1 1 1 1 1 1 1 1 1 0 0 0 0 0 0 0 0 0 0 0 0 0 0 0 0 0 0 0 0 0 0 0
1 1 1 1 1 1 1 1 1 1 1 1 1 1 1 1 1 1 1 1 0 0 0 0 0 0 0 0 0 0 0 0 0 0 0 0 0 0 0 0 0 0 0
1 1 1 1 1 1 1 1 1 1 1 1 1 1 1 1 1 1 1 1 0 0 0 0 0 0 0 0 0 0 0 0 0 0 0 0 0 0 0 0 0 0 0
1 1 1 1 1 1 1 1 1 1 1 1 1 1 1 1 0 0 0 0 0 0 0 0 0 0 0 0 0 0 0 0 0 0 0 0 0 0 0 0 0 0 0
1 1 1 1 1 1 1 1 1 1 1 1 1 1 1 0 0 0 0 0 0 0 0 0 0 0 0 0 0 0 0 0 0 0 0 0 0 0 0 0 0 0 0
1 1 1 1 1 1 1 1 1 1 1 0 0 0 0 0 0 0 0 0 0 0 0 0 0 0 0 0 0 0 0 0 0 0 0 0 0 0 0 0 0 0 0
0 0 1 1 1 0 0 0 0 0 0 0 0 0 0 0 0 0 0 0 0 0 0 0 0 0 0 0 0 0 0 0 0 0 0 0 0 0 0 0 0 0 0
0 0 0 0 0 0 0 0 0 0 0 0 0 0 0 0 0 0 0 0 0 0 0 0 0 0 0 0 1 1 0 0 0 0 0 0 0 0 0 0 0 0 0
0 0 0 0 0 0 0 0 0 0 0 0 0 0 0 0 0 0 0 0 0 0 0 0 0 0 0 0 1 1 0 0 0 0 0 0 0 0 0 0 0 0 0
0 0 0 0 0 0 0 0 0 0 0 0 0 0 0 0 0 0 0 0 0 0 0 0 0 0 0 0 0 0 0 0 0 0 0 0 0 0 0 0 0 0 0
0 0 0 0 0 0 0 0 0 0 0 0 0 0 0 0 0 0 0 0 0 0 0 0 0 0 0 0 0 0 0 0 0 0 0 0 0 1 1 0 0 0 0
0 0 0 0 0 0 0 0 0 0 0 0 0 0 0 0 0 0 0 0 0 0 0 0 0 0 0 0 0 0 0 0 0 0 0 0 0 0 0 0 0 0 0
0 0 0 0 0 0 0 0 0 0 0 0 0 0 0 0 0 0 0 0 0 0 0 0 0 0 0 0 0 0 0 0 0 0 0 0 0 0 0 0 0 0 0
0 1 1 1 1 0 0 0 0 0 0 0 0 0 0 0 0 0 0 0 0 0 0 0 0 0 0 0 0 0 0 0 0 0 0 0 0 0 0 0 0 0 0
0 1 1 1 1 0 0 0 0 0 0 0 0 0 0 0 0 0 0 0 0 0 0 0 0 0 0 0 0 0 0 0 0 0 0 0 0 0 0 0 0 0 0
0 0 1 1 1 0 0 0 1 1 1 1 0 0 0 0 0 0 0 0 0 0 0 0 0 0 0 0 0 0 0 0 0 0 0 0 0 0 0 0 0 0 0
0 0 0 1 1 0 0 1 1 1 1 1 1 0 0 0 0 0 0 0 0 0 0 0 0 0 0 0 0 0 0 0 0 0 0 0 0 0 0 0 0 0 0
0 0 0 1 1 1 1 1 1 1 1 1 1 0 0 0 0 0 0 0 0 0 0 0 0 0 0 0 0 0 0 0 0 0 0 0 0 0 0 0 0 0 0
0 0 0 1 1 1 1 1 1 1 1 1 1 1 0 0 0 0 0 0 0 0 0 0 0 0 0 0 0 0 0 0 0 0 0 0 0 0 0 0 0 0 0
0 0 0 0 0 0 0 1 1 1 1 1 1 0 0 0 0 0 0 0 0 0 0 0 0 0 0 0 0 0 0 0 0 0 0 0 0 0 0 0 0 0 0
0 0 0 0 0 0 0 1 1 1 1 1 0 0 0 0 0 0 0 0 0 0 0 0 0 0 0 0 0 0 0 0 0 0 0 0 0 0 0 0 0 0 0
0 0 0 0 0 0 0 0 0 0 0 0 0 0 0 0 0 0 0 0 0 0 0 0 0 0 0 0 0 0 0 0 0 0 0 0 0 0 0 0 0 0 0
0 0 0 0 0 0 0 0 0 0 0 0 0 0 0 0 0 0 0 0 0 0 0 0 0 0 0 0 0 0 0 0 0 0 0 0 0 0 0 0 0 0 0
0 0 0 0 0 0 0 0 0 0 0 0 0 0 0 0 0 0 0 0 0 0 0 0 0 0 0 0 0 0 0 0 0 0 0 0 0 0 0 0 0 0 0
Wind_Speed
10 11 12 12 12 13 13 13 13 12 10 9 9 9 9 8 8 8 9 10 9 9 8 6 7 7 6 6 6 5 6 5 3 3 3 4 5 4 4 5 4 5 5
9 10 11 12 12 13 13 13 13 13 13 10 8 7 7 7 8 7 8 10 10 9 9 9 7 8 6 7 7 6 5 4 4 4 3 3 4 5 5 4 5 6 5
10 11 12 12 12 12 12 11 12 12 12 11 8 6 6 6 6 8 8 9 11 11 10 10 8 7 8 7 7 7 8 5 5 4 4 3 2 2 4 5 5 5 5
9 10 11 12 12 12 11 11 11 12 12 12 10 11 9 8 9 7 7 9 10 11 11 10 10 9 8 7 8 8 6 6 5 5 4 4 3 3 2 5 6 6 6
7 8 9 10 10 10 11 11 11 11 11 12 12 11 10 8 6 7 8 8 9 10 11 11 10 9 8 8 8 6 8 6 6 5 5 5 4 6 4 3 3 5 5
6 6 7 8 8 9 9 9 10 10 11 11 11 11 11 10 9 9 8 8 7 8 11 11 10 10 9 8 8 8 9 7 6 5 5 5 5 6 5 5 5 4 4
5 6 7 7 8 8 8 9 10 10 10 11 11 11 11 11 11 10 9 9 8 8 10 10 9 9 9 9 9 9 8 8 8 7 6 6 6 5 5 5 4 3 3
5 6 7 7 7 8 8 8 9 8 9 10 10 10 10 8 8 10 9 9 7 8 9 10 10 10 9 10 9 8 9 7 8 9 7 6 6 5 5 5 5 5 5
5 6 7 7 7 7 8 7 8 8 8 8 8 9 9 9 8 8 8 7 7 7 9 9 9 9 9 9 9 7 8 7 8 8 8 7 6 6 5 5 5 6 6
6 6 6 6 6 6 7 7 7 7 7 7 7 7 8 9 8 8 8 7 8 7 8 9 9 9 9 9 8 7 8 8 7 5 6 6 7 5 5 6 6 6 6
6 6 6 6 6 6 6 6 6 6 6 7 7 6 7 7 8 7 8 7 7 8 8 8 8 8 8 8 8 8 7 8 7 7 7 8 7 5 6 6 6 6 6
6 6 6 6 6 6 6 6 6 6 6 7 7 6 6 6 6 7 7 7 7 8 8 8 8 8 8 7 8 8 8 8 8 8 7 8 6 7 7 5 6 6 5
5 5 5 5 5 5 5 5 5 5 5 6 6 6 6 6 6 6 6 6 7 7 8 8 8 8 7 7 7 7 7 8 7 7 7 7 6 6 6 6 6 5 6
5 4 5 4 4 5 5 5 5 5 5 5 6 5 5 5 5 5 5 5 6 7 7 7 7 7 6 6 7 7 7 6 6 5 5 5 6 6 6 5 6 6 6
4 3 3 4 4 4 4 5 5 5 4 5 5 5 4 4 4 4 5 5 5 6 6 6 6 6 5 5 5 5 5 5 5 5 5 5 3 2 3 4 4 4 5
3 3 3 2 3 4 4 4 4 5 5 4 4 4 4 4 4 4 4 5 5 4 5 5 5 4 3 3 3 3 4 4 4 4 4 4 4 3 3 2 2 3 5
3 3 3 2 2 3 4 5 5 5 5 5 5 5 4 4 3 4 4 4 4 5 4 4 4 4 3 5 3 2 3 3 3 3 3 4 3 4 4 5 5 4 3
3 2 2 2 2 2 4 5 5 5 5 5 5 5 5 5 4 5 5 5 5 5 4 4 4 4 5 5 4 2 3 2 1 1 1 1 0 1 2 2 2 2 2
3 2 2 2 2 2 3 4 5 6 6 5 4 5 5 6 5 5 5 5 5 5 5 4 4 5 5 5 3 1 2 2 2 2 3 2 1 4 3 2 2 1 1
4 3 3 4 4 3 3 4 5 5 6 5 5 5 5 5 6 6 6 5 5 5 5 6 5 5 5 5 3 0 2 3 3 3 4 6 4 4 3 1 0 0 1
5 4 4 4 4 3 3 5 5 5 5 6 6 6 6 6 6 6 6 6 6 6 6 6 5 6 6 5 5 4 1 2 2 2 3 4 6 5 5 3 2 2 3
6 5 5 5 5 4 4 6 5 5 6 7 7 7 6 6 7 7 6 6 6 7 6 6 5 5 6 7 7 8 6 4 4 4 4 6 7 7 6 4 4 3 4
6 5 6 7 6 6 6 7 6 6 7 8 8 8 8 8 7 7 7 6 5 5 5 5 5 6 6 7 10 9 9 8 6 7 9 8 5 5 6 6 3 3 2
6 6 6 7 7 7 7 7 6 7 9 10 9 9 9 10 9 7 6 5 5 5 5 6 6 6 6 6 5 5 6 7 7 6 7 7 5 4 5 3 3 4 5
6 6 7 8 8 7 8 7 7 8 10 10 10 9 10 10 11 11 11 10 10 8 6 6 6 6 7 7 9 6 6 5 4 2 3 3 4 4 4 4 4 4 4
7 8 9 9 9 9 9 8 7 8 9 9 8 8 8 8 9 11 12 19 16 18 18 14 10 10 9 8 10 10 9 7 5 3 5 5 5 5 5 4 4 4 5
Wind_Direction
188 184 187 188 186 187 188 191 193 190 188 191 194 197 198 199 201 204 197 197 202 203 211 216 196 210 205 207 204 203 198 215 209 222 221 215 217 221 214 221 220 210 211
179 179 184 189 190 189 190 192 193 192 196 195 196 198 196 200 201 205 199 200 201 205 208 216 209 207 205 208 210 211 221 207 196 221 226 222 201 210 217 210 214 220 208
189 183 186 190 192 192 194 195 196 195 200 196 190 191 191 200 202 205 205 207 206 209 216 210 215 211 213 205 210 206 213 215 206 220 240 245 228 190 187 212 216 213 215
193 189 189 190 194 194 193 197 194 195 197 193 194 194 196 201 207 206 204 205 211 214 213 213 214 217 218 208 211 207 214 219 217 204 234 270 327 278 215 199 194 202 217
191 189 190 191 194 193 192 193 193 196 195 196 195 199 205 209 207 209 208 210 210 216 216 215 214 214 220 214 219 207 219 216 225 217 210 221 226 245 261 244 215 202 208
181 179 182 182 185 188 188 188 190 195 197 198 202 206 210 208 207 208 209 210 209 213 215 215 212 214 218 212 213 213 214 226 231 236 227 220 226 229 236 245 236 228 219
170 171 171 174 177 182 182 188 191 192 194 199 205 212 215 211 212 213 212 212 211 210 210 213 211 213 212 211 210 210 220 216 218 226 231 233 241 248 248 259 258 249 229
158 162 164 169 173 175 177 183 186 190 194 201 206 211 214 213 214 214 213 214 216 214 206 209 211 211 209 210 207 214 211 211 215 224 233 243 243 244 242 250 259 254 242
155 158 156 162 165 170 174 180 183 189 194 201 203 206 208 213 215 212 211 213 214 211 206 206 208 209 209 210 207 215 214 208 212 217 216 233 239 236 243 248 253 259 262
152 150 151 150 150 158 165 176 184 193 197 200 206 202 206 208 210 211 208 207 212 213 206 204 204 206 205 205 208 210 210 211 213 222 229 232 237 231 235 240 246 254 266
147 145 148 145 148 156 161 169 176 188 196 200 204 204 201 200 201 204 204 203 206 204 203 204 202 202 204 204 206 214 206 211 213 217 218 225 240 237 234 232 238 244 250
143 147 144 144 153 160 166 171 178 188 195 193 196 198 196 190 194 198 199 200 200 199 198 199 199 203 204 202 205 214 210 210 212 216 220 225 223 228 248 247 245 247 253
139 146 149 153 158 164 169 170 176 181 187 181 183 183 185 185 192 195 195 197 193 190 191 190 194 199 202 204 206 211 213 215 216 215 218 224 225 228 233 242 248 245 240
136 150 156 162 164 172 172 172 174 172 175 172 172 172 179 181 186 186 188 188 186 182 183 185 190 194 200 205 208 207 209 213 215 215 217 222 225 231 234 235 244 252 255
120 133 147 150 166 173 174 171 169 164 164 164 165 167 169 168 170 173 177 175 176 175 174 178 183 187 189 201 204 204 203 209 212 209 213 218 216 253 255 255 246 248 253
108 110 114 132 166 177 178 172 167 159 159 159 155 154 153 155 157 159 161 156 155 156 159 167 169 167 172 128 153 205 204 205 207 208 211 207 194 199 207 260 295 291 266
101 108 116 125 146 180 175 170 165 156 154 156 148 142 143 140 138 133 130 134 138 138 138 141 141 138 107 101 115 165 210 208 212 216 221 231 196 194 210 199 204 221 236
80 78 88 104 125 149 157 158 156 151 149 148 144 140 135 132 127 121 120 121 121 122 124 126 127 119 96 98 115 148 189 191 203 215 234 234 259 319 284 249 221 223 207
64 62 48 76 102 122 139 150 153 147 141 137 138 139 142 137 133 126 121 120 118 115 113 108 103 98 84 69 86 162 154 127 98 68 53 47 58 33 359 260 236 212 161
60 64 69 76 78 85 124 136 136 133 131 131 132 133 135 134 130 124 121 118 117 112 104 93 86 82 72 57 55 10 143 124 117 104 89 67 49 43 25 321 345 204 289
65 66 69 69 68 75 108 118 118 118 122 124 120 119 122 122 120 118 117 116 111 105 97 91 83 75 63 65 56 39 64 111 113 104 88 69 64 60 46 21 25 354 305
68 73 75 69 64 72 100 102 99 100 108 111 109 107 110 114 112 110 108 110 113 111 105 97 86 76 67 56 60 57 48 35 77 73 73 74 72 71 58 52 33 338 291
68 76 82 80 71 68 79 86 83 96 103 102 99 96 89 85 93 103 109 109 108 108 106 103 93 79 74 74 69 67 64 58 68 73 80 85 90 100 87 71 24 341 3
69 73 80 80 74 69 74 82 91 95 99 97 94 92 88 82 72 66 65 70 75 90 93 89 87 82 68 52 54 77 87 94 93 94 110 120 103 88 77 75 44 35 34
69 72 75 79 78 75 75 79 90 98 98 97 94 92 88 85 76 65 49 52 46 41 66 74 75 73 70 41 31 40 53 52 62 73 89 70 66 57 51 50 44 28 23
79 79 79 79 78 77 75 74 81 92 99 99 98 96 96 95 97 95 80 56 59 56 56 56 66 75 72 72 65 61 56 46 12 26 69 58 47 41 36 28 24 25 20